"startDT [UTC]","vpos","CH4 [ppm]","stdev(CH4) [ppm]","CO2 [ppm]","stdev(CO2) [ppm]","H2O [ppm]","stdev(H2O)","p_LGR [torr]","T_LGR [C]","mt1_LGR [us]","mt2_LGR [us]","T_ECpre [C]","T_EC1 [C]","T_EC2 [C]","p_inlet [hPa]","p_in [hPa]","p_out [hPa]","T_inlet [C]","RH_inlet [%]","dwpt_inlet [C]","T_vent [C]","RH_vent [%]","dwpt_vent [C]","flow_vent [l min-1]","flow_inlet [l min-1]","dwpt_sample [C]","T_room [C]"
2012-01-29 00:00:00,0.0,1.9259,0.0009,402.81,0.22,38.6,31.6,138.13,28.81,24.61,36.32,0.04,-272.74,-272.73,-56,557,-958,24.1,2.0,-28.0,24.1,2.1,-27.6,5.73,2.42,-27.3,26.9
2012-01-29 00:01:00,0.0,1.9261,0.0011,402.89,0.23,28.8,31.0,138.13,28.81,24.61,36.32,0.04,-272.73,-272.74,-56,558,-958,24.1,2.0,-27.9,24.1,2.1,-27.6,5.73,2.34,-27.3,27.0
2012-01-29 00:02:00,0.0,1.9257,0.0010,402.69,0.23,28.6,29.4,138.13,28.81,24.61,36.33,0.04,-272.74,-272.73,-56,558,-958,24.1,2.1,-27.9,24.1,2.1,-27.6,5.73,2.36,-27.3,27.0
2012-01-29 00:03:00,0.0,1.9263,0.0009,402.84,0.25,27.7,27.9,138.13,28.80,24.61,36.33,0.04,-272.74,-272.74,-57,557,-958,24.1,2.1,-27.9,24.1,2.1,-27.5,5.73,2.47,-27.4,27.0
2012-01-29 00:04:00,0.0,1.9262,0.0013,402.79,0.21,30.7,27.5,138.13,28.80,24.61,36.33,0.04,-272.74,-272.74,-56,557,-958,24.1,2.1,-27.7,24.0,2.2,-27.4,5.73,2.54,-27.4,27.0
2012-01-29 00:05:00,0.0,1.9259,0.0009,402.82,0.23,37.7,29.5,138.13,28.79,24.61,36.33,0.04,-272.73,-272.74,-56,558,-958,24.1,2.1,-27.6,24.0,2.2,-27.2,5.73,2.52,-27.4,27.0
2012-01-29 00:06:00,0.0,1.9263,0.0010,402.90,0.24,25.9,24.9,138.13,28.79,24.61,36.32,0.04,-272.74,-272.74,-56,557,-958,24.1,2.1,-27.6,24.0,2.2,-27.2,5.73,2.42,-27.4,27.0
2012-01-29 00:07:00,0.0,1.9265,0.0010,402.80,0.22,23.3,26.9,138.13,28.78,24.61,36.33,0.04,-272.73,-272.74,-57,557,-958,24.1,2.1,-27.6,24.0,2.2,-27.3,5.73,2.33,-27.4,27.0
2012-01-29 00:08:00,0.0,1.9263,0.0009,402.76,0.21,29.8,29.1,138.13,28.78,24.61,36.33,0.04,-272.73,-272.74,-56,557,-958,24.0,2.1,-27.7,24.0,2.2,-27.3,5.73,2.37,-27.4,27.0
2012-01-29 00:09:00,0.0,1.9259,0.0008,402.75,0.19,35.1,29.6,138.13,28.77,24.61,36.33,0.04,-272.74,-272.74,-56,557,-958,24.1,2.1,-27.7,24.0,2.2,-27.3,5.73,2.48,-27.4,27.0
2012-01-29 00:10:00,0.0,1.9266,0.0010,402.84,0.22,24.6,24.8,138.13,28.77,24.60,36.33,0.04,-272.74,-272.74,-56,557,-957,24.1,2.1,-27.7,24.0,2.2,-27.3,5.73,2.47,-27.3,27.5
2012-01-29 00:11:00,0.0,1.9264,0.0010,402.85,0.24,42.6,34.2,138.12,28.77,24.61,36.33,0.04,-272.73,-272.74,-56,557,-957,24.1,2.1,-27.7,24.1,2.2,-27.3,5.73,2.42,-27.2,27.9
2012-01-29 00:12:00,0.0,1.9264,0.0008,402.87,0.21,46.3,34.6,138.11,28.78,24.61,36.33,0.04,-272.74,-272.73,-56,557,-958,24.1,2.1,-27.7,24.1,2.2,-27.4,5.73,2.41,-27.1,28.2
2012-01-29 00:13:00,0.0,1.9265,0.0008,402.83,0.20,56.2,33.2,138.11,28.80,24.61,36.33,0.04,-272.74,-272.74,-56,557,-958,24.2,2.1,-27.6,24.1,2.1,-27.4,5.73,2.48,-27.0,28.4
2012-01-29 00:14:00,0.0,1.9266,0.0010,402.78,0.21,63.0,32.3,138.10,28.82,24.61,36.33,0.04,-272.73,-272.74,-56,557,-957,24.2,2.1,-27.8,24.2,2.1,-27.5,5.73,2.53,-26.9,28.6
2012-01-29 00:15:00,0.0,1.9267,0.0010,402.71,0.25,71.9,34.5,138.09,28.85,24.61,36.34,0.04,-272.74,-272.73,-56,557,-957,24.2,2.0,-28.0,24.2,2.1,-27.8,5.73,2.46,-26.8,28.7
2012-01-29 00:16:00,0.0,1.9274,0.0011,402.71,0.23,74.8,30.1,138.09,28.87,24.61,36.33,0.04,-272.74,-272.74,-55,557,-958,24.3,2.0,-28.3,24.3,2.1,-27.8,5.73,2.36,-26.7,28.9
2012-01-29 00:17:00,0.0,1.9273,0.0009,402.75,0.23,79.1,34.3,138.08,28.90,24.61,36.33,0.04,-272.74,-272.74,-55,557,-957,24.3,2.0,-28.3,24.3,2.0,-27.9,5.73,2.39,-26.6,29.0
2012-01-29 00:18:00,0.0,1.9280,0.0009,402.75,0.21,89.1,31.1,138.08,28.93,24.61,36.33,0.04,-272.74,-272.74,-55,557,-958,24.4,1.9,-28.3,24.4,2.0,-27.8,5.73,2.48,-26.6,28.8
2012-01-29 00:19:00,0.0,1.9281,0.0011,402.72,0.22,92.1,31.4,138.08,28.96,24.61,36.34,0.04,-272.74,-272.74,-56,557,-958,24.4,1.9,-28.3,24.4,2.0,-27.7,5.73,2.46,-26.6,28.5
2012-01-29 00:20:00,0.0,1.9278,0.0009,402.71,0.23,84.2,30.1,138.08,28.98,24.61,36.34,0.04,-272.74,-272.74,-56,558,-958,24.4,2.0,-28.2,24.4,2.1,-27.7,5.73,2.41,-26.6,28.2
2012-01-29 00:21:00,0.0,1.9280,0.0009,402.79,0.23,83.4,35.0,138.09,29.00,24.61,36.34,0.04,-272.74,-272.74,-56,558,-958,24.5,2.0,-28.0,24.4,2.1,-27.6,5.73,2.40,-26.6,28.1
2012-01-29 00:22:00,0.0,1.9276,0.0010,402.86,0.24,81.0,30.7,138.09,29.01,24.61,36.34,0.04,-272.73,-272.74,-56,558,-958,24.4,2.0,-28.1,24.4,2.1,-27.7,5.73,2.45,-26.7,28.0
2012-01-29 00:23:00,0.0,1.9278,0.0010,402.86,0.26,72.4,27.9,138.09,29.02,24.61,36.34,0.04,-272.74,-272.74,-55,558,-958,24.5,2.0,-28.1,24.4,2.1,-27.7,5.73,2.53,-26.8,27.9
2012-01-29 00:24:00,0.0,1.9281,0.0011,402.70,0.33,68.8,36.9,138.10,29.02,24.61,36.34,0.04,-272.74,-272.73,-55,559,-959,24.5,2.0,-28.1,24.4,2.1,-27.7,5.73,2.53,-26.8,27.7
2012-01-29 00:25:00,0.0,1.9282,0.0011,402.86,0.25,64.5,32.7,138.10,29.03,24.61,36.34,0.04,-272.74,-272.73,-56,559,-958,24.5,2.0,-28.1,24.4,2.1,-27.7,5.73,2.46,-26.9,27.7
2012-01-29 00:26:00,0.0,1.9278,0.0009,402.93,0.22,60.4,30.3,138.10,29.03,24.61,36.33,0.04,-272.74,-272.74,-56,559,-958,24.5,2.0,-28.1,24.4,2.1,-27.7,5.73,2.38,-26.9,27.7
2012-01-29 00:27:00,0.0,1.9274,0.0009,402.77,0.25,63.0,34.4,138.10,29.02,24.61,36.34,0.04,-272.74,-272.74,-56,559,-958,24.5,2.0,-28.0,24.4,2.1,-27.7,5.73,2.35,-27.0,27.5
2012-01-29 00:28:00,0.0,1.9274,0.0008,402.84,0.21,62.3,32.3,138.11,29.02,24.61,36.34,0.04,-272.73,-272.73,-56,559,-958,24.4,2.0,-28.0,24.4,2.1,-27.6,5.73,2.40,-27.0,27.5
2012-01-29 00:29:00,0.0,1.9270,0.0009,402.91,0.26,46.2,29.8,138.11,29.02,24.62,36.33,0.04,-272.73,-272.74,-56,559,-958,24.4,2.0,-28.0,24.4,2.1,-27.6,5.73,2.49,-27.1,27.5
2012-01-29 00:30:00,0.0,1.9281,0.0009,402.85,0.25,45.8,29.4,138.11,29.02,24.61,36.34,0.04,-272.74,-272.74,-56,559,-958,24.4,2.0,-28.1,24.3,2.1,-27.7,5.73,2.54,-27.1,27.6
2012-01-29 00:31:00,0.0,1.9276,0.0011,402.86,0.21,46.9,28.6,138.11,29.01,24.61,36.34,0.04,-272.74,-272.73,-56,559,-958,24.4,2.0,-28.1,24.3,2.1,-27.6,5.73,2.50,-27.1,27.5
2012-01-29 00:32:00,0.0,1.9276,0.0008,402.83,0.22,40.8,31.5,138.11,29.01,24.61,36.34,0.04,-272.73,-272.73,-56,559,-958,24.4,2.0,-28.0,24.3,2.1,-27.6,5.73,2.42,-27.2,27.5
2012-01-29 00:33:00,0.0,1.9277,0.0011,402.94,0.25,39.0,30.4,138.12,29.00,24.61,36.33,0.04,-272.74,-272.74,-56,559,-958,24.4,2.0,-27.9,24.3,2.1,-27.6,5.73,2.36,-27.2,27.4
2012-01-29 00:34:00,0.0,1.9274,0.0008,402.85,0.23,39.7,28.8,138.11,29.00,24.61,36.34,0.04,-272.73,-272.74,-56,559,-958,24.4,2.0,-27.8,24.3,2.1,-27.5,5.73,2.37,-27.2,27.4
2012-01-29 00:35:00,0.0,1.9277,0.0010,402.83,0.25,41.6,31.7,138.12,28.99,24.61,36.34,0.04,-272.73,-272.74,-56,559,-958,24.4,2.0,-27.8,24.3,2.1,-27.5,5.73,2.42,-27.2,27.6
2012-01-29 00:36:00,0.0,1.9276,0.0009,402.83,0.27,36.5,29.2,138.12,28.98,24.61,36.34,0.04,-272.74,-272.74,-57,559,-958,24.4,2.0,-27.8,24.3,2.1,-27.4,5.73,2.50,-27.3,27.5
2012-01-29 00:37:00,0.0,1.9273,0.0010,402.94,0.25,41.8,34.1,138.12,28.98,24.61,36.33,0.04,-272.73,-272.74,-56,559,-958,24.4,2.0,-27.8,24.3,2.1,-27.4,5.73,2.53,-27.3,27.5
2012-01-29 00:38:00,0.0,1.9275,0.0011,402.85,0.20,36.6,29.8,138.12,28.97,24.61,36.33,0.04,-272.74,-272.74,-56,559,-958,24.4,2.1,-27.7,24.3,2.1,-27.5,5.73,2.49,-27.3,27.5
2012-01-29 00:39:00,0.0,1.9271,0.0008,402.84,0.27,41.0,27.8,138.12,28.96,24.61,36.34,0.04,-272.73,-272.74,-56,559,-958,24.3,2.0,-27.8,24.3,2.1,-27.4,5.73,2.42,-27.3,27.4
2012-01-29 00:40:00,0.0,1.9274,0.0008,402.88,0.21,31.8,29.2,138.12,28.96,24.61,36.33,0.04,-272.74,-272.74,-56,559,-958,24.3,2.0,-27.9,24.3,2.1,-27.5,5.73,2.36,-27.3,27.4
2012-01-29 00:41:00,0.0,1.9272,0.0011,402.85,0.22,34.5,27.4,138.12,28.95,24.61,36.33,0.04,-272.74,-272.74,-57,559,-958,24.3,2.0,-27.9,24.2,2.1,-27.6,5.73,2.36,-27.3,27.3
2012-01-29 00:42:00,0.0,1.9270,0.0008,402.82,0.21,36.9,31.9,138.12,28.95,24.61,36.34,0.04,-272.74,-272.73,-56,558,-958,24.3,2.0,-27.9,24.3,2.1,-27.6,5.73,2.42,-27.3,27.2
2012-01-29 00:43:00,0.0,1.9272,0.0010,402.69,0.21,32.1,27.7,138.12,28.94,24.61,36.34,0.04,-272.74,-272.74,-56,559,-958,24.3,2.0,-27.9,24.2,2.1,-27.6,5.73,2.50,-27.4,27.3
2012-01-29 00:44:00,0.0,1.9274,0.0008,402.79,0.26,30.4,25.2,138.12,28.94,24.61,36.34,0.04,-272.74,-272.74,-56,559,-958,24.3,2.0,-27.9,24.2,2.1,-27.7,5.73,2.53,-27.4,27.3
2012-01-29 00:45:00,0.0,1.9269,0.0010,402.83,0.27,32.0,32.4,138.12,28.93,24.61,36.33,0.04,-272.73,-272.74,-56,559,-958,24.3,2.0,-27.9,24.2,2.1,-27.5,5.73,2.50,-27.4,27.2
2012-01-29 00:46:00,0.0,1.9274,0.0008,402.79,0.25,34.6,29.7,138.12,28.93,24.61,36.34,0.04,-272.73,-272.74,-57,559,-958,24.3,2.0,-27.9,24.2,2.1,-27.5,5.73,2.43,-27.4,27.2
2012-01-29 00:47:00,0.0,1.9273,0.0009,402.83,0.22,30.8,27.4,138.12,28.92,24.61,36.34,0.04,-272.74,-272.73,-56,558,-959,24.3,2.0,-27.9,24.2,2.1,-27.5,5.73,2.37,-27.4,27.3
2012-01-29 00:48:00,0.0,1.9276,0.0009,402.82,0.23,30.8,29.7,138.12,28.92,24.61,36.34,0.04,-272.74,-272.73,-56,558,-958,24.3,2.0,-27.9,24.2,2.1,-27.5,5.73,2.36,-27.4,27.2
2012-01-29 00:49:00,0.0,1.9270,0.0011,402.83,0.24,33.8,29.2,138.13,28.91,24.61,36.33,0.04,-272.73,-272.74,-56,559,-958,24.3,2.0,-27.9,24.2,2.2,-27.3,5.73,2.40,-27.4,27.1
2012-01-29 00:50:00,0.0,1.9269,0.0010,402.92,0.28,29.4,31.0,138.13,28.91,24.61,36.33,0.04,-272.74,-272.74,-56,559,-958,24.2,2.1,-27.8,24.2,2.2,-27.2,5.73,2.48,-27.4,27.2
2012-01-29 00:51:00,0.0,1.9272,0.0013,402.96,0.19,20.0,24.9,138.13,28.90,24.61,36.33,0.04,-272.73,-272.74,-57,558,-958,24.2,2.0,-27.9,24.2,2.2,-27.3,5.73,2.53,-27.4,27.1
2012-01-29 00:52:00,0.0,1.9272,0.0010,402.85,0.22,18.9,23.0,138.13,28.90,24.61,36.34,0.04,-272.73,-272.74,-56,558,-958,24.2,2.0,-27.9,24.2,2.2,-27.3,5.73,2.51,-27.4,27.0
2012-01-29 00:53:00,0.0,1.9272,0.0009,402.85,0.21,27.2,30.8,138.13,28.89,24.61,36.33,0.04,-272.74,-272.74,-56,558,-958,24.2,2.0,-27.9,24.2,2.2,-27.4,5.73,2.44,-27.4,27.0
2012-01-29 00:54:00,0.0,1.9273,0.0008,402.77,0.20,36.8,29.1,138.13,28.89,24.61,36.34,0.04,-272.74,-272.74,-56,559,-958,24.2,2.0,-27.9,24.2,2.1,-27.4,5.73,2.37,-27.4,27.0
2012-01-29 00:55:00,0.0,1.9277,0.0010,402.80,0.28,27.0,24.7,138.13,28.88,24.61,36.33,0.04,-272.73,-272.73,-56,558,-958,24.2,2.1,-27.8,24.1,2.1,-27.4,5.73,2.35,-27.5,27.0
2012-01-29 00:56:00,0.0,1.9277,0.0007,402.86,0.28,28.9,29.7,138.13,28.88,24.61,36.33,0.04,-272.74,-272.74,-57,558,-958,24.2,2.1,-27.7,24.1,2.1,-27.4,5.73,2.40,-27.5,26.9
2012-01-29 00:57:00,0.0,1.9278,0.0008,402.95,0.24,28.3,27.4,138.13,28.87,24.61,36.32,0.04,-272.74,-272.74,-56,558,-958,24.2,2.1,-27.8,24.1,2.1,-27.4,5.73,2.50,-27.5,27.0
2012-01-29 00:58:00,0.0,1.9272,0.0010,402.81,0.23,24.9,26.7,138.13,28.87,24.61,36.33,0.04,-272.73,-272.73,-56,558,-958,24.2,2.1,-27.8,24.1,2.1,-27.4,5.73,2.54,-27.5,26.9
2012-01-29 00:59:00,0.0,1.9275,0.0008,402.94,0.22,28.3,26.9,138.13,28.86,24.61,36.32,0.04,-272.73,-272.73,-56,558,-958,24.2,2.1,-27.8,24.1,2.1,-27.4,5.73,2.50,-27.5,27.0
2012-01-29 01:00:00,0.0,1.9276,0.0010,402.87,0.25,28.5,24.6,138.13,28.86,24.61,36.33,0.04,-272.74,-272.74,-56,558,-958,24.1,2.1,-27.8,24.1,2.1,-27.4,5.73,2.41,-27.5,27.0
2012-01-29 01:01:00,0.0,1.9269,0.0010,402.82,0.24,33.2,30.3,138.13,28.85,24.61,36.33,0.04,-272.74,-272.74,-56,558,-958,24.1,2.1,-27.7,24.1,2.2,-27.4,5.73,2.36,-27.5,26.9
2012-01-29 01:02:00,0.0,1.9270,0.0010,402.87,0.23,33.6,34.1,138.13,28.84,24.61,36.33,0.04,-272.74,-272.73,-56,557,-958,24.1,2.1,-27.7,24.1,2.2,-27.4,5.73,2.36,-27.5,27.0
2012-01-29 01:03:00,0.0,1.9271,0.0010,402.84,0.24,34.4,31.3,138.13,28.84,24.61,36.33,0.04,-272.74,-272.74,-56,558,-958,24.1,2.1,-27.8,24.1,2.1,-27.5,5.73,2.46,-27.5,26.9
2012-01-29 01:04:00,0.0,1.9277,0.0009,402.91,0.24,26.5,28.7,138.13,28.83,24.61,36.32,0.04,-272.73,-272.74,-56,558,-958,24.1,2.1,-27.8,24.1,2.1,-27.4,5.73,2.54,-27.5,26.9
2012-01-29 01:05:00,0.0,1.9275,0.0010,402.88,0.23,26.3,26.1,138.13,28.83,24.61,36.33,0.04,-272.73,-272.74,-56,557,-958,24.1,2.1,-27.8,24.1,2.1,-27.5,5.73,2.52,-27.5,26.9
2012-01-29 01:06:00,0.0,1.9276,0.0010,402.84,0.20,24.5,23.3,138.13,28.82,24.61,36.33,0.04,-272.74,-272.74,-56,557,-958,24.1,2.1,-27.9,24.1,2.1,-27.4,5.73,2.44,-27.5,26.9
2012-01-29 01:07:00,0.0,1.9275,0.0010,402.85,0.25,30.0,29.2,138.13,28.82,24.61,36.33,0.04,-272.74,-272.74,-56,557,-958,24.1,2.1,-27.9,24.1,2.1,-27.4,5.73,2.36,-27.6,26.9
2012-01-29 01:08:00,0.0,1.9276,0.0010,402.86,0.25,28.3,28.1,138.13,28.81,24.61,36.33,0.04,-272.74,-272.74,-56,557,-958,24.1,2.1,-27.8,24.1,2.1,-27.4,5.73,2.35,-27.5,26.9
2012-01-29 01:09:00,0.0,1.9274,0.0010,402.95,0.21,25.4,24.5,138.13,28.81,24.61,36.32,0.04,-272.74,-272.74,-56,557,-958,24.1,2.1,-27.6,24.1,2.2,-27.3,5.73,2.43,-27.5,26.8
2012-01-29 01:10:00,0.0,1.9278,0.0009,402.89,0.22,37.6,34.8,138.13,28.80,24.61,36.32,0.04,-272.74,-272.73,-57,557,-958,24.1,2.1,-27.5,24.1,2.2,-27.2,5.73,2.54,-27.6,26.8
2012-01-29 01:11:00,0.0,1.9277,0.0010,402.92,0.24,30.2,29.9,138.13,28.79,24.61,36.33,0.04,-272.74,-272.74,-56,557,-958,24.1,2.1,-27.5,24.0,2.2,-27.1,5.73,2.53,-27.5,26.8
2012-01-29 01:12:00,0.0,1.9275,0.0010,402.94,0.23,33.2,31.4,138.13,28.79,24.61,36.32,0.04,-272.73,-272.73,-56,557,-957,24.1,2.2,-27.4,24.0,2.2,-27.0,5.73,2.44,-27.6,26.9
2012-01-29 01:13:00,0.0,1.9278,0.0009,402.88,0.24,24.3,23.5,138.13,28.78,24.61,36.33,0.04,-272.73,-272.73,-56,558,-958,24.1,2.1,-27.5,24.0,2.2,-27.1,5.73,2.34,-27.6,26.8
2012-01-29 01:14:00,0.0,1.9278,0.0010,402.86,0.28,31.6,28.3,138.13,28.78,24.61,36.33,0.04,-272.74,-272.74,-56,557,-958,24.1,2.1,-27.4,24.0,2.2,-27.1,5.73,2.38,-27.6,27.1
2012-01-29 01:15:00,0.0,1.9274,0.0010,402.88,0.21,33.2,29.9,138.13,28.78,24.61,36.33,0.04,-272.73,-272.74,-56,557,-958,24.1,2.1,-27.5,24.1,2.2,-27.1,5.73,2.44,-27.5,27.6
2012-01-29 01:16:00,0.0,1.9278,0.0008,402.86,0.23,40.5,33.8,138.12,28.78,24.61,36.33,0.04,-272.73,-272.74,-56,557,-958,24.1,2.1,-27.5,24.1,2.2,-27.2,5.73,2.48,-27.4,27.9
2012-01-29 01:17:00,0.0,1.9277,0.0009,402.83,0.24,47.7,31.7,138.11,28.79,24.61,36.33,0.04,-272.74,-272.74,-56,557,-958,24.1,2.1,-27.5,24.1,2.2,-27.1,5.73,2.51,-27.3,28.2
2012-01-29 01:18:00,0.0,1.9278,0.0008,402.66,0.24,55.0,31.8,138.10,28.81,24.61,36.35,0.04,-272.73,-272.73,-56,557,-957,24.2,2.1,-27.5,24.1,2.2,-27.2,5.73,2.48,-27.3,28.4
2012-01-29 01:19:00,0.0,1.9282,0.0009,402.65,0.20,60.5,29.8,138.10,28.83,24.61,36.35,0.04,-272.73,-272.73,-56,557,-957,24.2,2.1,-27.6,24.2,2.2,-27.3,5.73,2.39,-27.1,28.6
2012-01-29 01:20:00,0.0,1.9283,0.0009,402.66,0.21,64.4,34.4,138.09,28.86,24.61,36.34,0.04,-272.74,-272.73,-56,557,-958,24.3,2.0,-27.9,24.2,2.1,-27.5,5.73,2.36,-27.0,28.7
2012-01-29 01:21:00,0.0,1.9283,0.0008,402.80,0.20,76.0,34.4,138.09,28.89,24.61,36.33,0.04,-272.74,-272.74,-56,557,-957,24.3,2.0,-27.9,24.3,2.1,-27.5,5.73,2.47,-26.9,28.9
2012-01-29 01:22:00,0.0,1.9290,0.0009,402.60,0.21,74.7,33.0,138.08,28.92,24.61,36.34,0.04,-272.73,-272.73,-56,557,-957,24.4,2.0,-27.8,24.3,2.1,-27.4,5.73,2.54,-26.8,29.0
2012-01-29 01:23:00,0.0,1.9292,0.0011,402.75,0.27,83.3,34.6,138.08,28.95,24.61,36.34,0.04,-272.74,-272.74,-56,557,-958,24.4,2.0,-27.9,24.4,2.1,-27.4,5.73,2.47,-26.7,28.7
2012-01-29 01:24:00,0.0,1.9294,0.0009,402.82,0.25,85.6,32.4,138.08,28.97,24.61,36.34,0.04,-272.74,-272.74,-56,557,-958,24.4,2.0,-28.0,24.4,2.1,-27.5,5.73,2.45,-26.7,28.4
2012-01-29 01:25:00,0.0,1.9298,0.0010,402.95,0.19,79.7,29.9,138.09,28.99,24.61,36.33,0.04,-272.73,-272.73,-56,557,-958,24.4,2.0,-28.1,24.4,2.1,-27.6,5.73,2.43,-26.7,28.1
2012-01-29 01:26:00,0.0,1.9296,0.0012,402.87,0.26,72.9,36.0,138.09,29.01,24.61,36.34,0.04,-272.74,-272.73,-55,558,-957,24.5,2.0,-28.1,24.4,2.1,-27.7,5.73,2.38,-26.8,28.0
2012-01-29 01:27:00,0.0,1.9296,0.0008,402.91,0.19,71.4,33.4,138.09,29.02,24.61,36.34,0.04,-272.73,-272.74,-55,559,-958,24.5,2.0,-28.1,24.4,2.1,-27.7,5.73,2.36,-26.9,27.9
2012-01-29 01:28:00,0.0,1.9298,0.0009,402.85,0.20,70.1,31.7,138.10,29.02,24.61,36.34,0.04,-272.73,-272.74,-56,558,-958,24.5,2.0,-28.2,24.4,2.0,-27.8,5.73,2.41,-26.9,27.8
2012-01-29 01:29:00,0.0,1.9293,0.0009,402.85,0.22,65.1,31.4,138.10,29.03,24.61,36.34,0.04,-272.73,-272.74,-56,558,-958,24.5,1.9,-28.2,24.4,2.0,-27.8,5.73,2.51,-27.0,27.8
2012-01-29 01:30:00,0.0,1.9294,0.0009,403.00,0.22,56.9,33.8,138.10,29.03,24.61,36.33,0.04,-272.74,-272.74,-56,559,-958,24.4,1.9,-28.3,24.4,2.0,-27.8,5.73,2.54,-27.0,27.6
2012-01-29 01:31:00,0.0,1.9294,0.0010,402.94,0.26,53.4,31.3,138.11,29.03,24.61,36.34,0.04,-272.73,-272.74,-55,559,-958,24.4,2.0,-28.2,24.4,2.0,-27.8,5.73,2.48,-27.1,27.5
2012-01-29 01:32:00,0.0,1.9290,0.0009,402.92,0.24,52.3,30.8,138.11,29.02,24.61,36.34,0.04,-272.74,-272.74,-56,559,-958,24.4,1.9,-28.3,24.3,2.0,-27.9,5.73,2.39,-27.1,27.5
2012-01-29 01:33:00,0.0,1.9291,0.0009,402.87,0.24,48.7,33.5,138.11,29.02,24.61,36.34,0.04,-272.73,-272.74,-56,559,-958,24.4,2.0,-28.2,24.3,2.1,-27.7,5.73,2.34,-27.2,27.6
2012-01-29 01:34:00,0.0,1.9293,0.0010,402.94,0.23,46.1,31.0,138.11,29.01,24.61,36.34,0.04,-272.74,-272.73,-56,559,-958,24.4,2.0,-28.2,24.3,2.0,-27.8,5.73,2.39,-27.2,27.5
2012-01-29 01:35:00,0.0,1.9292,0.0009,402.87,0.24,42.7,28.8,138.11,29.01,24.61,36.34,0.04,-272.73,-272.74,-56,559,-958,24.4,2.0,-28.1,24.3,2.1,-27.7,5.73,2.48,-27.2,27.5
2012-01-29 01:36:00,0.0,1.9290,0.0009,402.86,0.20,40.0,30.2,138.11,29.01,24.61,36.34,0.04,-272.74,-272.74,-56,559,-958,24.4,2.0,-28.2,24.3,2.0,-27.8,5.73,2.54,-27.3,27.5
2012-01-29 01:37:00,0.0,1.9291,0.0008,402.94,0.28,39.3,31.7,138.11,29.00,24.61,36.34,0.04,-272.74,-272.74,-56,559,-958,24.4,2.0,-28.3,24.3,2.0,-27.9,5.73,2.51,-27.3,27.4
2012-01-29 01:38:00,0.0,1.9286,0.0009,402.97,0.22,36.4,28.3,138.12,29.00,24.61,36.33,0.04,-272.74,-272.73,-57,558,-958,24.4,2.0,-28.1,24.3,2.0,-27.8,5.73,2.43,-27.3,27.3
2012-01-29 01:39:00,0.0,1.9289,0.0009,402.89,0.25,36.7,29.2,138.12,28.99,24.61,36.33,0.04,-272.74,-272.74,-56,558,-958,24.4,2.0,-28.1,24.3,2.1,-27.7,5.73,2.35,-27.3,27.3
2012-01-29 01:40:00,0.0,1.9285,0.0009,402.96,0.22,35.9,29.0,138.12,28.99,24.61,36.33,0.04,-272.74,-272.74,-56,559,-958,24.3,2.0,-28.2,24.3,2.0,-27.8,5.73,2.35,-27.3,27.3
2012-01-29 01:41:00,0.0,1.9286,0.0009,402.86,0.23,27.3,25.7,138.12,28.98,24.61,36.33,0.04,-272.74,-272.74,-56,559,-958,24.3,1.9,-28.3,24.3,2.0,-27.9,5.73,2.43,-27.4,27.2
2012-01-29 01:42:00,0.0,1.9282,0.0009,402.89,0.23,30.6,24.8,138.12,28.97,24.61,36.33,0.04,-272.73,-272.74,-56,559,-958,24.3,1.9,-28.3,24.3,2.0,-27.9,5.73,2.51,-27.4,27.1
2012-01-29 01:43:00,0.0,1.9286,0.0009,402.85,0.23,30.6,29.4,138.12,28.96,24.61,36.34,0.04,-272.74,-272.74,-57,558,-958,24.3,1.9,-28.3,24.2,2.0,-27.9,5.73,2.53,-27.4,27.2
2012-01-29 01:44:00,0.0,1.9285,0.0010,402.87,0.23,28.5,30.0,138.12,28.95,24.61,36.34,0.04,-272.74,-272.74,-56,558,-958,24.3,2.0,-28.2,24.2,2.0,-27.9,5.73,2.48,-27.4,27.3
2012-01-29 01:45:00,0.0,1.9282,0.0009,402.80,0.22,41.8,29.0,138.12,28.95,24.61,36.34,0.04,-272.74,-272.74,-56,559,-958,24.3,1.9,-28.3,24.2,2.0,-27.9,5.73,2.40,-27.4,27.3
2012-01-29 01:46:00,0.0,1.9279,0.0009,402.80,0.20,28.3,27.8,138.12,28.94,24.61,36.34,0.04,-272.73,-272.74,-56,559,-958,24.3,2.0,-28.2,24.2,2.0,-28.0,5.73,2.35,-27.5,27.3
2012-01-29 01:47:00,0.0,1.9280,0.0007,402.82,0.20,26.3,26.0,138.12,28.94,24.61,36.34,0.04,-272.74,-272.74,-56,559,-958,24.3,2.0,-28.2,24.2,2.1,-27.8,5.73,2.37,-27.4,27.3
2012-01-29 01:48:00,0.0,1.9279,0.0007,402.82,0.26,33.4,29.0,138.12,28.93,24.61,36.34,0.04,-272.74,-272.74,-57,558,-958,24.3,2.0,-28.2,24.2,2.1,-27.8,5.73,2.44,-27.5,27.3
2012-01-29 01:49:00,0.0,1.9278,0.0009,402.94,0.25,29.2,28.5,138.12,28.93,24.61,36.33,0.04,-272.73,-272.74,-56,558,-958,24.3,2.0,-28.2,24.2,2.1,-27.7,5.73,2.51,-27.5,27.2
2012-01-29 01:50:00,0.0,1.9281,0.0009,402.79,0.22,22.8,22.6,138.12,28.92,24.61,36.34,0.04,-272.74,-272.74,-56,558,-958,24.3,2.0,-28.1,24.2,2.1,-27.6,5.73,2.52,-27.5,27.2
2012-01-29 01:51:00,0.0,1.9280,0.0008,402.82,0.23,17.3,19.8,138.13,28.92,24.61,36.34,0.04,-272.74,-272.74,-56,559,-957,24.3,2.0,-28.2,24.2,2.1,-27.4,5.73,2.48,-27.5,27.1
2012-01-29 01:52:00,0.0,1.9282,0.0009,402.79,0.24,20.9,23.6,138.12,28.91,24.61,36.34,0.04,-272.73,-272.73,-56,558,-958,24.3,2.0,-28.0,24.2,2.1,-27.4,5.73,2.41,-27.5,27.1
2012-01-29 01:53:00,0.0,1.9281,0.0010,402.80,0.23,20.9,27.0,138.13,28.91,24.61,36.34,0.04,-272.74,-272.73,-57,558,-957,24.3,2.0,-28.1,24.2,2.1,-27.4,5.73,2.36,-27.5,27.2
2012-01-29 01:54:00,0.0,1.9281,0.0009,402.95,0.22,24.6,27.2,138.13,28.90,24.61,36.33,0.04,-272.74,-272.74,-56,558,-958,24.2,2.0,-28.1,24.2,2.1,-27.4,5.73,2.36,-27.5,27.0
2012-01-29 01:55:00,0.0,1.9279,0.0011,402.99,0.21,23.8,25.7,138.13,28.89,24.61,36.33,0.04,-272.73,-272.74,-56,558,-958,24.2,2.0,-28.0,24.2,2.1,-27.4,5.73,2.41,-27.6,27.2
2012-01-29 01:56:00,0.0,1.9283,0.0009,402.81,0.20,19.8,24.4,138.13,28.89,24.61,36.34,0.04,-272.74,-272.74,-56,558,-957,24.2,2.0,-27.8,24.1,2.1,-27.4,5.73,2.50,-27.5,27.1
2012-01-29 01:57:00,0.0,1.9283,0.0010,402.90,0.28,23.3,25.0,138.13,28.88,24.61,36.33,0.04,-272.74,-272.74,-56,558,-957,24.2,2.0,-27.9,24.1,2.1,-27.5,5.73,2.53,-27.5,27.1
2012-01-29 01:58:00,0.0,1.9283,0.0010,402.85,0.24,28.0,29.5,138.13,28.87,24.61,36.33,0.04,-272.74,-272.73,-57,558,-958,24.2,2.0,-27.9,24.1,2.1,-27.5,5.73,2.48,-27.6,27.0
2012-01-29 01:59:00,0.0,1.9285,0.0010,402.95,0.25,22.2,24.5,138.13,28.87,24.61,36.33,0.04,-272.73,-272.74,-56,557,-958,24.2,2.0,-27.9,24.1,2.1,-27.5,5.73,2.40,-27.6,27.0
2012-01-29 02:00:00,0.0,1.9283,0.0010,402.85,0.23,23.0,24.8,138.13,28.86,24.61,36.33,0.04,-272.74,-272.74,-56,558,-957,24.2,2.0,-27.9,24.1,2.1,-27.6,5.73,2.35,-27.6,26.9
2012-01-29 02:01:00,0.0,1.9284,0.0010,402.92,0.23,28.2,30.8,138.13,28.86,24.61,36.33,0.04,-272.74,-272.74,-56,558,-958,24.1,2.0,-28.0,24.1,2.1,-27.5,5.73,2.37,-27.6,27.1
2012-01-29 02:02:00,0.0,1.9282,0.0010,402.91,0.23,27.9,28.2,138.13,28.85,24.61,36.33,0.04,-272.73,-272.74,-56,558,-958,24.1,2.0,-28.0,24.1,2.1,-27.5,5.73,2.45,-27.6,27.1
2012-01-29 02:03:00,0.0,1.9282,0.0008,402.96,0.23,23.5,21.2,138.13,28.85,24.61,36.33,0.04,-272.74,-272.74,-57,557,-957,24.1,2.0,-28.0,24.1,2.1,-27.6,5.73,2.53,-27.6,27.0
2012-01-29 02:04:00,0.0,1.9287,0.0009,402.87,0.22,26.5,31.1,138.13,28.85,24.61,36.33,0.04,-272.74,-272.74,-56,557,-957,24.1,2.0,-28.0,24.1,2.1,-27.7,5.73,2.53,-27.6,27.0
2012-01-29 02:05:00,0.0,1.9284,0.0009,402.90,0.23,28.6,25.7,138.13,28.84,24.61,36.33,0.04,-272.74,-272.74,-56,558,-958,24.1,2.0,-28.0,24.1,2.1,-27.7,5.73,2.44,-27.6,27.1
2012-01-29 02:06:00,0.0,1.9283,0.0009,402.88,0.20,27.7,29.4,138.13,28.84,24.61,36.34,0.04,-272.74,-272.74,-56,558,-957,24.1,2.0,-28.1,24.1,2.1,-27.7,5.73,2.35,-27.6,27.1
2012-01-29 02:07:00,0.0,1.9283,0.0010,402.91,0.21,27.1,25.6,138.13,28.83,24.61,36.33,0.04,-272.74,-272.74,-56,557,-957,24.1,2.0,-28.0,24.0,2.1,-27.6,5.73,2.35,-27.6,27.0
2012-01-29 02:08:00,0.0,1.9288,0.0010,402.93,0.23,24.0,25.3,138.13,28.83,24.61,36.33,0.04,-272.74,-272.74,-56,557,-958,24.1,2.0,-28.1,24.1,2.1,-27.7,5.73,2.42,-27.6,26.9
2012-01-29 02:09:00,0.0,1.9287,0.0010,402.87,0.23,32.6,30.7,138.13,28.82,24.61,36.34,0.04,-272.73,-272.74,-56,557,-958,24.1,2.0,-28.3,24.0,2.1,-27.9,5.73,2.50,-27.6,26.8
2012-01-29 02:10:00,0.0,1.9285,0.0010,402.92,0.27,27.2,25.6,138.13,28.81,24.61,36.33,0.04,-272.73,-272.74,-56,557,-957,24.1,2.0,-28.3,24.0,2.1,-27.9,5.73,2.55,-27.6,27.0
2012-01-29 02:11:00,0.0,1.9287,0.0009,402.92,0.25,23.4,28.2,138.13,28.81,24.61,36.33,0.04,-272.74,-272.74,-56,558,-957,24.1,2.0,-28.3,24.0,2.0,-28.0,5.73,2.48,-27.6,26.9
2012-01-29 02:12:00,0.0,1.9286,0.0010,402.96,0.22,22.1,24.6,138.13,28.80,24.61,36.33,0.04,-272.74,-272.74,-57,557,-958,24.1,2.0,-28.2,24.0,2.1,-27.9,5.73,2.37,-27.6,26.9
2012-01-29 02:13:00,0.0,1.9286,0.0009,402.92,0.25,30.6,27.4,138.13,28.80,24.61,36.33,0.04,-272.74,-272.74,-56,557,-958,24.1,2.0,-28.2,24.0,2.1,-27.7,5.73,2.34,-27.6,26.9
2012-01-29 02:14:00,0.0,1.9288,0.0009,402.93,0.23,21.3,25.6,138.13,28.79,24.61,36.33,0.04,-272.74,-272.74,-56,557,-957,24.1,2.0,-28.2,24.0,2.1,-27.8,5.73,2.39,-27.6,26.9
2012-01-29 02:15:00,0.0,1.9286,0.0013,402.96,0.25,30.2,26.8,138.13,28.79,24.61,36.33,0.04,-272.74,-272.74,-56,557,-957,24.1,2.0,-28.2,24.0,2.1,-27.8,5.73,2.49,-27.7,26.9
2012-01-29 02:16:00,0.0,1.9282,0.0008,403.00,0.26,33.8,27.7,138.13,28.78,24.61,36.33,0.04,-272.74,-272.74,-56,557,-957,24.0,2.0,-28.2,24.0,2.1,-27.8,5.73,2.51,-27.6,27.2
2012-01-29 02:17:00,0.0,1.9284,0.0009,402.99,0.25,30.3,31.0,138.13,28.78,24.61,36.33,0.04,-272.74,-272.74,-56,557,-957,24.1,2.0,-28.2,24.0,2.1,-27.7,5.73,2.43,-27.6,27.7